STARLINK-32132, 60334

Orbit data source: Space-Track

STARLINK-32132, 60334 is a payload satellite owned by SpaceX/Seattle (US) in LEO that was launched on Fri, 02 Aug 2024 UTC via an FALCON 9 launch vehicle from the Air Force Eastern Test Range (AFETR). Payloads include a variety of satellites, spacecraft, and rockets equipped with specific instruments for various scientific and technological missions. These include communications satellites like Starlink; space stations such as the ISS; scientific satellites like the Hubble; Earth observation satellites from companies like Planet Labs, Umbra, and HawkEye 360; GPS; miniature CubeSats for education and research; and military/defense satellites.

Loading next visibility...
STARLINK-32132 details
Identifier
60334, 2024-136F
Orbit
LEO
Last TLE update21 hours ago
Origin
Flag of USSpaceX/Seattle (US)
ManufacturerSpaceX/Seattle
MissionOperational spacecraft
Bus & MotorSTARLINK V2M, Unknown motor
Mass730 kg wet, ~700 kg dry
Launch date (UTC)
2024-08-02 (5 months ago)
Launch vehicle
FALCON 9
Launch site
Air Force Eastern Test Range (AFETR)
Object type
Payload
Rocket body
Debris
Shape & HBRUnknown
Radar Cross SectionLarge (>1 m²)

Expand to show TLE details & history

TLE from 21 hours ago
0 STARLINK-32132
1 60334U 24136F   24356.34247958  .00000220  00000-0  19548-4 0  9999
2 60334  53.1619 335.1451 0001472 104.6128 255.5036 15.30196375 21785
Epoch: 2024-12-21T08:13Z
Definitive object data (Epoch: 2024-12-21T08:13:10.235Z)
Latitude-0.00004°
Longitude121.45741°
Altitude476.378 km
Speed7.629 km/s
True Right ascension22h 20m 34s
True Declination0° 00' 00"
Sunlit
Object was in daylight at TLE epoch
Visualization TLE readout
Latitude48.65803°
Longitude175.31462°
Altitude479.941 km
Speed7.632 km/s
Apparent Right ascension20h 25m 26s
Apparent Declination22° 45' 17"
Sunlit
Object is in full shadow
Visualization observer readout
Local Sidereal Time03:58:27
Azimuth302.042° NW
Elevation-1.78°
Doppler factor1
Orbital elements
Apogee altitude476.491 km
Perigee altitude474.473 km
Semi-major axis6,853.619 km
Eccentricity0.0001472
Inclination53.1619°
RAAN335.1451°
Arg. of periapsis104.6128°
True anomaly255.48727°
Mean anomaly255.5036°
Eccentric anomaly255.49543°
Mean motion3.82528 °/min
BSTAR0.000019548
Orbital period94.11 mins
Loading maneuver chart data...
Loading historical data...
Loading historical data...
Loading historical data...
Loading historical data...
Loading historical data...
Loading historical data...
Loading historical data...

STARLINK-32132 Visibility forecast

Observer location: undefined°, undefined

Span
Click to sort rows by Start time (UTC) header in descending order
Start Az.
Max El. time (UTC)
Max El. Az.
Max El.
End time (UTC)
End Az.
5 mins2024-12-22 08:14:57.480Z314.423° NW2024-12-22 08:16:57.480Z72.01° E44.51°2024-12-22 08:19:57.480Z127.068° SE
5 mins2024-12-23 01:09:57.480Z225.726° WSW2024-12-23 01:11:57.480Z209.961° SW43.513°2024-12-23 01:14:57.480Z51.775° ENE
4 mins2024-12-23 02:48:57.480Z303.918° NW2024-12-23 02:50:57.480Z345.233° N17.84°2024-12-23 02:52:57.480Z20.597° NNE
|